Time,TemperatureF,DewpointF,PressureIn,WindDirection,WindDirectionDegrees,WindSpeedMPH,WindSpeedGustMPH,Humidity,HourlyPrecipIn,Conditions,Clouds,dailyrainin,SolarRadiationWatts/m^2,SoftwareType,DateUTC
2013-03-15 00:00:00,34.1,32.3,30.16,SE,146,1.0,1.0,93,0.00,,,0.01,0,Wunderground v.1.15,2013-03-15 04:00:00,
2013-03-15 00:05:00,34.2,32.4,30.16,SE,137,1.0,2.0,93,0.00,,,0.00,0,Wunderground v.1.15,2013-03-15 04:05:00,
2013-03-15 00:09:00,34.2,32.4,30.15,SSE,152,1.0,1.0,93,0.00,,,0.00,0,Wunderground v.1.15,2013-03-15 04:09:00,
2013-03-15 00:15:00,34.2,32.4,30.15,SSE,151,1.0,1.0,93,0.00,,,0.00,0,Wunderground v.1.15,2013-03-15 04:15:00,
2013-03-15 00:20:00,34.2,32.4,30.15,ESE,111,0.0,2.0,93,0.00,,,0.00,0,Wunderground v.1.15,2013-03-15 04:20:00,
2013-03-15 00:30:00,34.2,32.4,30.15,SE,142,0.0,0.0,93,0.00,,,0.00,0,Wunderground v.1.15,2013-03-15 04:30:00,
2013-03-15 00:40:00,34.2,32.7,30.14,SSE,158,0.0,0.0,94,0.00,,,0.00,0,Wunderground v.1.15,2013-03-15 04:40:00,
2013-03-15 00:50:00,34.3,32.8,30.14,SSE,149,0.0,0.0,94,0.00,,,0.00,0,Wunderground v.1.15,2013-03-15 04:50:00,
2013-03-15 00:55:00,34.3,32.8,30.14,SSE,149,0.0,0.0,94,0.00,,,0.00,0,Wunderground v.1.15,2013-03-15 04:55:00,
2013-03-15 01:05:00,34.1,32.3,30.14,SSE,152,0.0,1.0,93,0.00,,,0.00,0,Wunderground v.1.15,2013-03-15 05:05:00,
2013-03-15 01:10:00,34.0,32.2,30.13,SSE,154,0.0,0.0,93,0.00,,,0.00,0,Wunderground v.1.15,2013-03-15 05:10:00,
2013-03-15 01:20:00,33.9,32.1,30.13,SSE,152,0.0,0.0,93,0.00,,,0.00,0,Wunderground v.1.15,2013-03-15 05:20:00,
2013-03-15 01:25:00,33.8,32.0,30.12,SSE,164,0.0,0.0,93,0.00,,,0.00,0,Wunderground v.1.15,2013-03-15 05:25:00,
2013-03-15 01:30:00,33.8,32.0,30.12,SE,138,0.0,0.0,93,0.00,,,0.00,0,Wunderground v.1.15,2013-03-15 05:30:00,
2013-03-15 01:40:00,33.6,31.8,30.11,SSE,149,0.0,0.0,93,0.00,,,0.00,0,Wunderground v.1.15,2013-03-15 05:40:00,
2013-03-15 01:45:00,33.5,31.7,30.11,South,189,0.0,0.0,93,0.00,,,0.00,0,Wunderground v.1.15,2013-03-15 05:45:00,
2013-03-15 01:55:00,33.4,31.6,30.10,South,184,0.0,1.0,93,0.00,,,0.00,0,Wunderground v.1.15,2013-03-15 05:55:00,
2013-03-15 02:00:00,33.3,31.5,30.10,South,184,0.0,0.0,93,0.00,,,0.00,0,Wunderground v.1.15,2013-03-15 06:00:00,
2013-03-15 02:10:00,33.2,31.7,30.10,South,184,0.0,0.0,94,0.00,,,0.00,0,Wunderground v.1.15,2013-03-15 06:10:00,
2013-03-15 02:15:00,33.1,31.6,30.09,SSE,148,0.0,0.0,94,0.00,,,0.00,0,Wunderground v.1.15,2013-03-15 06:15:00,
2013-03-15 02:25:00,33.1,31.6,30.09,SE,128,1.0,1.0,94,0.00,,,0.00,0,Wunderground v.1.15,2013-03-15 06:25:00,
2013-03-15 02:30:00,33.2,31.7,30.09,SE,133,1.0,1.0,94,0.00,,,0.00,0,Wunderground v.1.15,2013-03-15 06:30:00,
2013-03-15 02:40:00,33.2,31.7,30.08,SE,129,0.0,1.0,94,0.00,,,0.00,0,Wunderground v.1.15,2013-03-15 06:40:00,
2013-03-15 02:45:00,33.2,31.7,30.08,SE,137,0.0,1.0,94,0.00,,,0.00,0,Wunderground v.1.15,2013-03-15 06:45:00,
2013-03-15 02:55:00,33.2,31.4,30.08,SE,137,0.0,0.0,93,0.00,,,0.00,0,Wunderground v.1.15,2013-03-15 06:55:00,
2013-03-15 03:00:00,33.3,31.5,30.08,SE,134,0.0,0.0,93,0.00,,,0.00,0,Wunderground v.1.15,2013-03-15 07:00:00,
2013-03-15 03:05:00,33.4,31.6,30.08,ESE,107,1.0,1.0,93,0.00,,,0.00,0,Wunderground v.1.15,2013-03-15 07:05:00,
2013-03-15 03:15:00,33.5,31.7,30.07,SE,146,0.0,0.0,93,0.00,,,0.00,0,Wunderground v.1.15,2013-03-15 07:15:00,
2013-03-15 03:25:00,33.7,31.6,30.07,South,185,0.0,0.0,92,0.00,,,0.00,0,Wunderground v.1.15,2013-03-15 07:25:00,
2013-03-15 03:30:00,33.7,31.6,30.06,SE,131,0.0,5.0,92,0.00,,,0.00,0,Wunderground v.1.15,2013-03-15 07:30:00,
2013-03-15 03:40:00,33.8,31.5,30.06,SE,130,1.0,1.0,91,0.00,,,0.00,0,Wunderground v.1.15,2013-03-15 07:40:00,
2013-03-15 03:45:00,33.7,31.4,30.06,SE,130,0.0,1.0,91,0.00,,,0.00,0,Wunderground v.1.15,2013-03-15 07:45:00,
2013-03-15 03:55:00,33.5,31.2,30.05,SE,130,0.0,0.0,91,0.00,,,0.00,0,Wunderground v.1.15,2013-03-15 07:55:00,
2013-03-15 04:00:00,33.3,31.0,30.05,SE,129,0.0,0.0,91,0.00,,,0.00,0,Wunderground v.1.15,2013-03-15 08:00:00,
2013-03-15 04:10:00,33.2,30.9,30.04,ESE,107,0.0,0.0,91,0.00,,,0.00,0,Wunderground v.1.15,2013-03-15 08:10:00,
2013-03-15 04:15:00,33.0,30.7,30.03,ESE,105,0.0,0.0,91,0.00,,,0.00,0,Wunderground v.1.15,2013-03-15 08:15:00,
2013-03-15 04:25:00,32.6,30.3,30.03,ESE,105,0.0,0.0,91,0.00,,,0.00,0,Wunderground v.1.15,2013-03-15 08:25:00,
2013-03-15 04:30:00,32.5,30.4,30.03,ESE,104,0.0,0.0,92,0.00,,,0.00,0,Wunderground v.1.15,2013-03-15 08:30:00,
2013-03-15 04:40:00,32.6,30.5,30.02,East,95,0.0,0.0,92,0.00,,,0.00,0,Wunderground v.1.15,2013-03-15 08:40:00,
2013-03-15 04:45:00,32.4,30.3,30.02,East,95,0.0,0.0,92,0.00,,,0.00,0,Wunderground v.1.15,2013-03-15 08:45:00,
2013-03-15 04:55:00,32.0,29.9,30.01,East,95,0.0,0.0,92,0.00,,,0.00,0,Wunderground v.1.15,2013-03-15 08:55:00,
2013-03-15 05:00:00,31.9,29.8,30.01,East,95,0.0,0.0,92,0.00,,,0.00,0,Wunderground v.1.15,2013-03-15 09:00:00,
2013-03-15 05:10:00,31.9,30.1,30.00,East,95,0.0,0.0,93,0.00,,,0.00,0,Wunderground v.1.15,2013-03-15 09:10:00,
2013-03-15 05:20:00,32.1,30.3,30.00,East,95,0.0,0.0,93,0.00,,,0.00,0,Wunderground v.1.15,2013-03-15 09:20:00,
2013-03-15 05:25:00,32.2,30.4,29.99,East,95,0.0,0.0,93,0.00,,,0.00,0,Wunderground v.1.15,2013-03-15 09:25:00,
2013-03-15 05:35:00,32.5,31.0,29.99,ESE,111,0.0,2.0,94,0.00,,,0.00,0,Wunderground v.1.15,2013-03-15 09:35:00,
2013-03-15 05:40:00,32.7,31.2,29.99,ESE,116,1.0,2.0,94,0.00,,,0.00,0,Wunderground v.1.15,2013-03-15 09:40:00,
2013-03-15 05:50:00,32.9,31.1,29.98,SE,128,1.0,2.0,93,0.00,,,0.00,0,Wunderground v.1.15,2013-03-15 09:50:00,
2013-03-15 05:55:00,33.1,31.3,29.98,SSE,149,1.0,2.0,93,0.00,,,0.00,0,Wunderground v.1.15,2013-03-15 09:55:00,
2013-03-15 06:05:00,33.4,31.3,29.98,SE,136,1.0,1.0,92,0.00,,,0.00,0,Wunderground v.1.15,2013-03-15 10:05:00,
2013-03-15 06:10:00,33.5,31.4,29.98,ESE,122,1.0,1.0,92,0.00,,,0.00,0,Wunderground v.1.15,2013-03-15 10:10:00,
2013-03-15 06:20:00,33.7,31.6,29.98,ESE,119,1.0,2.0,92,0.00,,,0.00,0,Wunderground v.1.15,2013-03-15 10:20:00,
2013-03-15 06:25:00,33.8,31.5,29.98,SE,131,1.0,2.0,91,0.00,,,0.00,0,Wunderground v.1.15,2013-03-15 10:25:00,
2013-03-15 06:35:00,34.0,31.4,29.98,NE,56,1.0,3.0,90,0.00,,,0.00,0,Wunderground v.1.15,2013-03-15 10:35:00,
2013-03-15 06:45:00,33.7,30.8,29.98,ENE,63,1.0,1.0,89,0.00,,,0.00,0,Wunderground v.1.15,2013-03-15 10:45:00,
2013-03-15 06:50:00,33.4,30.5,29.98,ENE,62,0.0,0.0,89,0.00,,,0.00,0,Wunderground v.1.15,2013-03-15 10:50:00,
2013-03-15 07:00:00,32.7,30.1,29.98,NE,51,1.0,1.0,90,0.00,,,0.00,0,Wunderground v.1.15,2013-03-15 11:00:00,
2013-03-15 07:05:00,32.5,30.2,29.99,NE,51,0.0,1.0,91,0.00,,,0.00,0,Wunderground v.1.15,2013-03-15 11:05:00,
2013-03-15 07:15:00,32.3,30.0,29.99,ESE,102,0.0,0.0,91,0.00,,,0.00,0,Wunderground v.1.15,2013-03-15 11:15:00,
2013-03-15 07:20:00,32.1,29.8,29.99,ESE,102,0.0,0.0,91,0.00,,,0.00,0,Wunderground v.1.15,2013-03-15 11:20:00,
2013-03-15 07:30:00,32.1,30.0,29.98,ESE,102,0.0,0.0,92,0.00,,,0.00,0,Wunderground v.1.15,2013-03-15 11:30:00,
2013-03-15 07:35:00,32.2,30.1,29.98,ESE,116,0.0,0.0,92,0.00,,,0.00,0,Wunderground v.1.15,2013-03-15 11:35:00,
2013-03-15 07:45:00,32.1,30.0,29.98,ESE,116,0.0,0.0,92,0.00,,,0.00,0,Wunderground v.1.15,2013-03-15 11:45:00,
2013-03-15 07:50:00,31.9,29.8,29.98,ESE,116,0.0,0.0,92,0.00,,,0.00,0,Wunderground v.1.15,2013-03-15 11:50:00,
2013-03-15 08:00:00,31.5,29.4,29.98,ESE,116,0.0,0.0,92,0.00,,,0.00,7,Wunderground v.1.15,2013-03-15 12:00:00,
2013-03-15 08:05:00,31.7,29.9,29.97,ESE,116,0.0,0.0,93,0.00,,,0.00,12,Wunderground v.1.15,2013-03-15 12:05:00,
2013-03-15 08:15:00,32.2,30.4,29.97,ESE,116,0.0,0.0,93,0.00,,,0.00,25,Wunderground v.1.15,2013-03-15 12:15:00,
2013-03-15 08:20:00,32.3,30.5,29.97,ESE,116,0.0,0.0,93,0.00,,,0.00,33,Wunderground v.1.15,2013-03-15 12:20:00,
2013-03-15 08:30:00,32.6,30.5,29.97,ESE,116,0.0,0.0,92,0.00,,,0.00,46,Wunderground v.1.15,2013-03-15 12:30:00,
2013-03-15 08:35:00,32.8,30.7,29.97,ESE,116,0.0,0.0,92,0.00,,,0.00,53,Wunderground v.1.15,2013-03-15 12:35:00,
2013-03-15 08:45:00,33.4,31.6,29.97,ESE,116,0.0,0.0,93,0.00,,,0.00,70,Wunderground v.1.15,2013-03-15 12:45:00,
2013-03-15 08:50:00,33.8,32.0,29.96,ESE,116,0.0,0.0,93,0.00,,,0.00,84,Wunderground v.1.15,2013-03-15 12:50:00,
2013-03-15 09:00:00,34.7,32.6,29.96,ESE,116,0.0,0.0,92,0.00,,,0.00,113,Wunderground v.1.15,2013-03-15 13:00:00,
2013-03-15 09:05:00,35.2,32.8,29.97,ESE,116,0.0,0.0,91,0.00,,,0.00,123,Wunderground v.1.15,2013-03-15 13:05:00,
2013-03-15 09:15:00,36.1,33.2,29.96,SSW,199,0.0,0.0,89,0.00,,,0.00,137,Wunderground v.1.15,2013-03-15 13:15:00,
2013-03-15 09:20:00,36.6,33.4,29.96,SSW,196,0.0,0.0,88,0.00,,,0.00,155,Wunderground v.1.15,2013-03-15 13:20:00,
2013-03-15 09:30:00,37.5,33.7,29.95,SSW,206,0.0,0.0,86,0.00,,,0.01,167,Wunderground v.1.15,2013-03-15 13:30:00,
2013-03-15 09:35:00,38.1,33.7,29.95,SE,128,0.0,0.0,84,0.00,,,0.01,193,Wunderground v.1.15,2013-03-15 13:35:00,
2013-03-15 09:45:00,39.0,34.0,29.94,WSW,239,1.0,1.0,82,0.00,,,0.01,248,Wunderground v.1.15,2013-03-15 13:45:00,
2013-03-15 09:50:00,39.6,34.2,29.94,NE,35,1.0,1.0,81,0.00,,,0.01,202,Wunderground v.1.15,2013-03-15 13:50:00,
2013-03-15 10:00:00,40.0,34.0,29.94,SW,234,1.0,1.0,79,0.00,,,0.01,272,Wunderground v.1.15,2013-03-15 14:00:00,
2013-03-15 10:05:00,40.2,33.9,29.94,West,260,1.0,2.0,78,0.00,,,0.01,211,Wunderground v.1.15,2013-03-15 14:05:00,
2013-03-15 10:15:00,40.5,34.2,29.94,SW,214,2.0,3.0,78,0.00,,,0.01,272,Wunderground v.1.15,2013-03-15 14:15:00,
2013-03-15 10:20:00,40.7,34.4,29.94,WSW,247,2.0,4.0,78,0.00,,,0.01,309,Wunderground v.1.15,2013-03-15 14:20:00,
2013-03-15 10:30:00,41.4,34.7,29.94,West,278,2.0,2.0,77,0.00,,,0.01,288,Wunderground v.1.15,2013-03-15 14:30:00,
2013-03-15 10:40:00,41.9,34.9,29.94,WNW,287,2.0,5.0,76,0.00,,,0.01,306,Wunderground v.1.15,2013-03-15 14:40:00,
2013-03-15 10:45:00,42.0,35.0,29.94,SSW,204,3.0,5.0,76,0.00,,,0.01,357,Wunderground v.1.15,2013-03-15 14:45:00,
2013-03-15 10:50:00,42.1,35.1,29.94,WNW,297,4.0,5.0,76,0.00,,,0.01,441,Wunderground v.1.15,2013-03-15 14:50:00,
2013-03-15 11:00:00,42.4,35.4,29.94,West,264,4.0,6.0,76,0.00,,,0.01,408,Wunderground v.1.15,2013-03-15 15:00:00,
2013-03-15 11:05:00,42.8,35.4,29.94,WSW,237,4.0,6.0,75,0.00,,,0.01,573,Wunderground v.1.15,2013-03-15 15:05:00,
2013-03-15 11:15:00,43.4,36.0,29.93,WNW,295,5.0,6.0,75,0.00,,,0.01,334,Wunderground v.1.15,2013-03-15 15:15:00,
2013-03-15 11:20:00,43.7,36.0,29.93,WNW,282,5.0,5.0,74,0.00,,,0.01,408,Wunderground v.1.15,2013-03-15 15:20:00,
2013-03-15 11:30:00,44.2,36.1,29.92,WSW,257,4.0,4.0,73,0.00,,,0.01,482,Wunderground v.1.15,2013-03-15 15:30:00,
2013-03-15 11:35:00,44.7,36.9,29.92,SSW,199,4.0,4.0,74,0.00,,,0.01,434,Wunderground v.1.15,2013-03-15 15:35:00,
2013-03-15 11:45:00,45.6,37.1,29.92,SSW,198,3.0,3.0,72,0.00,,,0.01,462,Wunderground v.1.15,2013-03-15 15:45:00,
2013-03-15 11:50:00,45.9,37.4,29.92,SW,228,3.0,4.0,72,0.00,,,0.01,492,Wunderground v.1.15,2013-03-15 15:50:00,
2013-03-15 12:00:00,46.2,37.3,29.93,WSW,243,3.0,6.0,71,0.00,,,0.01,374,Wunderground v.1.15,2013-03-15 16:00:00,
2013-03-15 12:05:00,46.6,38.1,29.93,West,261,3.0,6.0,72,0.00,,,0.01,478,Wunderground v.1.15,2013-03-15 16:05:00,
2013-03-15 12:15:00,47.0,38.4,29.93,West,264,3.0,4.0,72,0.00,,,0.01,517,Wunderground v.1.15,2013-03-15 16:15:00,
2013-03-15 12:20:00,47.6,39.0,29.92,SW,232,3.0,3.0,72,0.00,,,0.01,566,Wunderground v.1.15,2013-03-15 16:20:00,
2013-03-15 12:30:00,48.0,38.7,29.92,WSW,237,3.0,3.0,70,0.00,,,0.01,454,Wunderground v.1.15,2013-03-15 16:30:00,
2013-03-15 12:35:00,48.1,38.8,29.92,West,264,3.0,3.0,70,0.00,,,0.01,476,Wunderground v.1.15,2013-03-15 16:35:00,
2013-03-15 12:45:00,48.8,38.7,29.91,West,270,2.0,4.0,68,0.00,,,0.01,475,Wunderground v.1.15,2013-03-15 16:45:00,
2013-03-15 12:50:00,48.9,38.8,29.92,SW,236,3.0,3.0,68,0.00,,,0.01,439,Wunderground v.1.15,2013-03-15 16:50:00,
2013-03-15 13:00:00,49.6,39.5,29.92,WSW,239,3.0,3.0,68,0.00,,,0.01,454,Wunderground v.1.15,2013-03-15 17:00:00,
2013-03-15 13:10:00,49.9,39.4,29.92,WSW,250,4.0,4.0,67,0.00,,,0.01,503,Wunderground v.1.15,2013-03-15 17:10:00,
2013-03-15 13:15:00,50.5,39.6,29.92,West,270,3.0,4.0,66,0.00,,,0.01,814,Wunderground v.1.15,2013-03-15 17:15:00,
2013-03-15 13:20:00,51.0,40.0,29.92,WNW,290,3.0,5.0,66,0.00,,,0.01,436,Wunderground v.1.15,2013-03-15 17:20:00,
2013-03-15 13:30:00,51.5,39.7,29.91,WSW,249,2.0,5.0,64,0.00,,,0.01,726,Wunderground v.1.15,2013-03-15 17:30:00,
2013-03-15 13:35:00,51.5,40.1,29.91,WNW,301,3.0,6.0,65,0.00,,,0.01,464,Wunderground v.1.15,2013-03-15 17:35:00,
2013-03-15 13:40:00,51.7,39.9,29.91,SW,227,3.0,3.0,64,0.00,,,0.01,540,Wunderground v.1.15,2013-03-15 17:40:00,
2013-03-15 13:50:00,52.8,40.5,29.90,WSW,244,2.0,3.0,63,0.00,,,0.01,497,Wunderground v.1.15,2013-03-15 17:50:00,
2013-03-15 14:00:00,53.5,40.8,29.90,WNW,283,2.0,3.0,62,0.00,,,0.01,512,Wunderground v.1.15,2013-03-15 18:00:00,
2013-03-15 14:05:00,53.9,40.8,29.90,West,261,2.0,3.0,61,0.00,,,0.01,425,Wunderground v.1.15,2013-03-15 18:05:00,
2013-03-15 14:10:00,53.6,40.5,29.89,WNW,302,2.0,3.0,61,0.00,,,0.01,387,Wunderground v.1.15,2013-03-15 18:10:00,
2013-03-15 14:20:00,54.1,40.9,29.89,WSW,238,2.0,4.0,61,0.00,,,0.01,415,Wunderground v.1.15,2013-03-15 18:20:00,
2013-03-15 14:25:00,54.2,40.6,29.89,West,260,3.0,4.0,60,0.00,,,0.01,471,Wunderground v.1.15,2013-03-15 18:25:00,
2013-03-15 14:35:00,54.9,41.3,29.89,SW,222,2.0,3.0,60,0.00,,,0.01,403,Wunderground v.1.15,2013-03-15 18:35:00,
2013-03-15 14:40:00,55.3,41.2,29.89,West,276,3.0,3.0,59,0.00,,,0.01,520,Wunderground v.1.15,2013-03-15 18:40:00,
2013-03-15 14:50:00,55.8,40.8,29.88,West,277,2.0,2.0,57,0.00,,,0.01,650,Wunderground v.1.15,2013-03-15 18:50:00,
2013-03-15 14:55:00,56.2,40.7,29.87,SSW,197,3.0,3.0,56,0.00,,,0.01,469,Wunderground v.1.15,2013-03-15 18:55:00,
2013-03-15 15:05:00,56.5,41.0,29.86,WSW,241,3.0,5.0,56,0.00,,,0.01,469,Wunderground v.1.15,2013-03-15 19:05:00,
2013-03-15 15:15:00,57.0,41.0,29.86,SW,229,2.0,3.0,55,0.00,,,0.01,650,Wunderground v.1.15,2013-03-15 19:15:00,
2013-03-15 15:20:00,57.2,41.6,29.85,WSW,256,3.0,3.0,56,0.00,,,0.01,664,Wunderground v.1.15,2013-03-15 19:20:00,
2013-03-15 15:25:00,58.1,41.5,29.85,SW,219,3.0,3.0,54,0.00,,,0.01,612,Wunderground v.1.15,2013-03-15 19:25:00,
2013-03-15 15:35:00,58.3,41.7,29.84,SSE,168,2.0,2.0,54,0.00,,,0.01,443,Wunderground v.1.15,2013-03-15 19:35:00,
2013-03-15 15:45:00,59.0,41.4,29.84,WSW,241,1.0,2.0,52,0.00,,,0.01,504,Wunderground v.1.15,2013-03-15 19:45:00,
2013-03-15 15:50:00,59.0,41.4,29.84,SW,216,2.0,4.0,52,0.00,,,0.01,403,Wunderground v.1.15,2013-03-15 19:50:00,
2013-03-15 16:00:00,58.9,40.8,29.83,SW,226,3.0,5.0,51,0.00,,,0.01,373,Wunderground v.1.15,2013-03-15 20:00:00,
2013-03-15 16:05:00,59.0,40.9,29.83,South,175,3.0,5.0,51,0.00,,,0.01,355,Wunderground v.1.15,2013-03-15 20:05:00,
2013-03-15 16:15:00,59.6,41.4,29.83,SSW,194,2.0,3.0,51,0.00,,,0.01,288,Wunderground v.1.15,2013-03-15 20:15:00,
2013-03-15 16:20:00,60.0,41.8,29.83,West,276,1.0,7.0,51,0.00,,,0.01,285,Wunderground v.1.15,2013-03-15 20:20:00,
2013-03-15 16:30:00,59.7,40.5,29.83,West,263,5.0,5.0,49,0.00,,,0.01,322,Wunderground v.1.15,2013-03-15 20:30:00,
2013-03-15 16:35:00,59.8,40.1,29.82,WSW,255,4.0,5.0,48,0.00,,,0.01,287,Wunderground v.1.15,2013-03-15 20:35:00,
2013-03-15 16:45:00,60.1,40.9,29.82,SSW,201,3.0,4.0,49,0.00,,,0.01,243,Wunderground v.1.15,2013-03-15 20:45:00,
2013-03-15 16:50:00,60.2,40.4,29.82,West,265,2.0,2.0,48,0.00,,,0.01,230,Wunderground v.1.15,2013-03-15 20:50:00,
2013-03-15 17:00:00,60.1,40.3,29.82,WSW,240,3.0,3.0,48,0.00,,,0.01,260,Wunderground v.1.15,2013-03-15 21:00:00,
2013-03-15 17:05:00,60.3,40.5,29.81,West,274,3.0,5.0,48,0.00,,,0.01,288,Wunderground v.1.15,2013-03-15 21:05:00,
2013-03-15 17:15:00,60.6,40.8,29.81,WSW,241,4.0,4.0,48,0.00,,,0.01,302,Wunderground v.1.15,2013-03-15 21:15:00,
2013-03-15 17:20:00,61.0,41.2,29.81,WSW,251,3.0,4.0,48,0.00,,,0.01,313,Wunderground v.1.15,2013-03-15 21:20:00,
2013-03-15 17:30:00,61.2,40.8,29.81,SW,216,3.0,4.0,47,0.00,,,0.01,253,Wunderground v.1.15,2013-03-15 21:30:00,
2013-03-15 17:35:00,61.2,40.2,29.81,West,262,4.0,6.0,46,0.00,,,0.01,246,Wunderground v.1.15,2013-03-15 21:35:00,
2013-03-15 17:45:00,61.7,40.7,29.80,West,280,3.0,4.0,46,0.00,,,0.01,209,Wunderground v.1.15,2013-03-15 21:45:00,
2013-03-15 17:55:00,61.8,40.8,29.80,West,266,3.0,4.0,46,0.00,,,0.01,183,Wunderground v.1.15,2013-03-15 21:55:00,
2013-03-15 18:00:00,61.8,41.3,29.80,WNW,289,3.0,3.0,47,0.00,,,0.01,192,Wunderground v.1.15,2013-03-15 22:00:00,
2013-03-15 18:05:00,62.0,41.5,29.80,South,185,3.0,3.0,47,0.00,,,0.01,171,Wunderground v.1.15,2013-03-15 22:05:00,
2013-03-15 18:14:00,62.3,41.8,29.79,SW,231,1.0,2.0,47,0.00,,,0.01,141,Wunderground v.1.15,2013-03-15 22:14:00,
2013-03-15 18:20:00,62.3,41.2,29.80,SW,222,1.0,1.0,46,0.00,,,0.01,135,Wunderground v.1.15,2013-03-15 22:20:00,
2013-03-15 18:25:00,62.2,41.2,29.79,WSW,253,1.0,2.0,46,0.00,,,0.01,135,Wunderground v.1.15,2013-03-15 22:25:00,
2013-03-15 18:35:00,62.0,41.0,29.80,West,276,2.0,3.0,46,0.00,,,0.01,104,Wunderground v.1.15,2013-03-15 22:35:00,
2013-03-15 18:40:00,62.0,41.0,29.80,WNW,289,2.0,2.0,46,0.00,,,0.01,104,Wunderground v.1.15,2013-03-15 22:40:00,
2013-03-15 18:50:00,61.9,41.4,29.80,NW,310,1.0,1.0,47,0.00,,,0.01,72,Wunderground v.1.15,2013-03-15 22:50:00,
2013-03-15 18:55:00,61.9,41.4,29.79,NW,310,1.0,1.0,47,0.00,,,0.01,65,Wunderground v.1.15,2013-03-15 22:55:00,
2013-03-15 19:05:00,61.7,41.8,29.79,NW,310,1.0,1.0,48,0.00,,,0.01,46,Wunderground v.1.15,2013-03-15 23:05:00,
2013-03-15 19:10:00,61.6,41.7,29.79,NW,310,0.0,0.0,48,0.00,,,0.01,39,Wunderground v.1.15,2013-03-15 23:10:00,
2013-03-15 19:15:00,61.3,44.0,29.79,NW,310,0.0,0.0,53,0.00,,,0.01,32,Wunderground v.1.15,2013-03-15 23:15:00,
2013-03-15 19:25:00,60.2,44.0,29.78,NW,310,0.0,0.0,55,0.00,,,0.01,21,Wunderground v.1.15,2013-03-15 23:25:00,
2013-03-15 19:35:00,59.5,44.2,29.78,NW,314,0.0,2.0,57,0.00,,,0.01,11,Wunderground v.1.15,2013-03-15 23:35:00,
2013-03-15 19:40:00,59.1,44.3,29.78,NW,323,0.0,0.0,58,0.00,,,0.01,7,Wunderground v.1.15,2013-03-15 23:40:00,
2013-03-15 19:50:00,58.0,44.2,29.79,NW,323,0.0,0.0,60,0.00,,,0.01,0,Wunderground v.1.15,2013-03-15 23:50:00,
2013-03-15 19:55:00,57.5,43.3,29.79,NW,323,0.0,0.0,59,0.00,,,0.01,0,Wunderground v.1.15,2013-03-15 23:55:00,
2013-03-15 20:00:00,56.9,44.0,29.78,NE,41,0.0,2.0,62,0.00,,,0.01,0,Wunderground v.1.15,2013-03-16 00:00:00,
2013-03-15 20:10:00,55.5,43.5,29.78,NE,53,1.0,1.0,64,0.00,,,0.01,0,Wunderground v.1.15,2013-03-16 00:10:00,
2013-03-15 20:20:00,54.5,43.4,29.78,ENE,78,0.0,0.0,66,0.00,,,0.01,0,Wunderground v.1.15,2013-03-16 00:20:00,
2013-03-15 20:25:00,54.0,43.3,29.78,East,94,0.0,1.0,67,0.00,,,0.01,0,Wunderground v.1.15,2013-03-16 00:25:00,
2013-03-15 20:35:00,53.4,43.5,29.77,East,95,0.0,0.0,69,0.00,,,0.01,0,Wunderground v.1.15,2013-03-16 00:35:00,
2013-03-15 20:40:00,53.3,43.4,29.77,East,95,0.0,0.0,69,0.00,,,0.01,0,Wunderground v.1.15,2013-03-16 00:40:00,
2013-03-15 20:50:00,53.3,43.4,29.77,East,96,0.0,0.0,69,0.00,,,0.01,0,Wunderground v.1.15,2013-03-16 00:50:00,
2013-03-15 20:55:00,53.0,43.1,29.76,East,96,0.0,0.0,69,0.00,,,0.01,0,Wunderground v.1.15,2013-03-16 00:55:00,
2013-03-15 21:05:00,52.3,43.5,29.77,East,96,0.0,0.0,72,0.00,,,0.01,0,Wunderground v.1.15,2013-03-16 01:05:00,
2013-03-15 21:10:00,52.1,43.3,29.76,East,96,0.0,0.0,72,0.00,,,0.01,0,Wunderground v.1.15,2013-03-16 01:10:00,
2013-03-15 21:20:00,51.7,43.3,29.76,East,96,0.0,0.0,73,0.00,,,0.01,0,Wunderground v.1.15,2013-03-16 01:20:00,
2013-03-15 21:25:00,51.4,43.0,29.76,East,96,0.0,0.0,73,0.00,,,0.01,0,Wunderground v.1.15,2013-03-16 01:25:00,
2013-03-15 21:35:00,51.6,43.2,29.76,East,96,0.0,0.0,73,0.00,,,0.01,0,Wunderground v.1.15,2013-03-16 01:35:00,
2013-03-15 21:40:00,51.8,43.4,29.76,East,100,0.0,0.0,73,0.00,,,0.01,0,Wunderground v.1.15,2013-03-16 01:40:00,
2013-03-15 21:50:00,51.4,43.0,29.75,ESE,116,1.0,2.0,73,0.00,,,0.01,0,Wunderground v.1.15,2013-03-16 01:50:00,
2013-03-15 21:55:00,51.3,42.6,29.74,SE,137,2.0,2.0,72,0.00,,,0.01,0,Wunderground v.1.15,2013-03-16 01:55:00,
2013-03-15 22:05:00,51.9,43.5,29.73,SE,141,1.0,2.0,73,0.00,,,0.01,0,Wunderground v.1.15,2013-03-16 02:05:00,
2013-03-15 22:10:00,52.2,43.4,29.73,SE,143,1.0,1.0,72,0.00,,,0.01,0,Wunderground v.1.15,2013-03-16 02:10:00,
2013-03-15 22:20:00,53.5,42.8,29.72,SE,140,1.0,2.0,67,0.00,,,0.01,0,Wunderground v.1.15,2013-03-16 02:20:00,
2013-03-15 22:30:00,55.3,42.5,29.72,SSE,149,2.0,2.0,62,0.00,,,0.01,0,Wunderground v.1.15,2013-03-16 02:30:00,
2013-03-15 22:35:00,55.8,42.5,29.71,SE,144,2.0,6.0,61,0.00,,,0.01,0,Wunderground v.1.15,2013-03-16 02:35:00,
2013-03-15 22:45:00,56.2,42.5,29.70,SSE,165,3.0,4.0,60,0.00,,,0.01,0,Wunderground v.1.15,2013-03-16 02:45:00,
2013-03-15 22:50:00,56.3,42.6,29.70,South,181,3.0,3.0,60,0.00,,,0.01,0,Wunderground v.1.15,2013-03-16 02:50:00,
2013-03-15 23:00:00,56.2,42.5,29.70,South,181,2.0,2.0,60,0.00,,,0.01,0,Wunderground v.1.15,2013-03-16 03:00:00,
2013-03-15 23:05:00,56.2,42.5,29.70,SE,135,2.0,2.0,60,0.00,,,0.01,0,Wunderground v.1.15,2013-03-16 03:05:00,
2013-03-15 23:10:00,56.3,42.6,29.70,SSE,163,2.0,2.0,60,0.00,,,0.01,0,Wunderground v.1.15,2013-03-16 03:10:00,
2013-03-15 23:20:00,56.7,42.5,29.70,SW,222,1.0,1.0,59,0.00,,,0.01,0,Wunderground v.1.15,2013-03-16 03:20:00,
2013-03-15 23:30:00,56.7,42.5,29.69,ESE,108,1.0,2.0,59,0.00,,,0.01,0,Wunderground v.1.15,2013-03-16 03:30:00,
2013-03-15 23:35:00,56.8,43.1,29.70,SE,137,1.0,2.0,60,0.00,,,0.01,0,Wunderground v.1.15,2013-03-16 03:35:00,
2013-03-15 23:45:00,56.4,43.1,29.69,SE,129,1.0,2.0,61,0.00,,,0.01,0,Wunderground v.1.15,2013-03-16 03:45:00,
2013-03-15 23:50:00,56.2,42.9,29.69,SSE,148,0.0,0.0,61,0.00,,,0.01,0,Wunderground v.1.15,2013-03-16 03:50:00,